Time,TemperatureF,DewpointF,PressureIn,WindDirection,WindDirectionDegrees,WindSpeedMPH,WindSpeedGustMPH,Humidity,HourlyPrecipIn,Conditions,Clouds,dailyrainin,SolarRadiationWatts/m^2,SoftwareType,DateUTC
2013-06-16 00:00:00,53.2,50.9,30.06,West,280,2.0,4.0,92,0.00,,,0.00,0.00,VWS V14.01,2013-06-16 07:00:00,
2013-06-16 00:05:00,53.3,51.0,30.06,West,280,2.0,2.0,92,0.00,,,0.00,0.00,VWS V14.01,2013-06-16 07:05:00,
2013-06-16 00:10:00,53.3,51.0,30.06,WNW,289,1.0,5.0,92,0.00,,,0.00,0.00,VWS V14.01,2013-06-16 07:10:00,
2013-06-16 00:15:00,53.3,51.0,30.06,West,275,2.0,4.0,92,0.00,,,0.00,0.00,VWS V14.01,2013-06-16 07:15:00,
2013-06-16 00:20:00,53.2,50.9,30.06,West,277,0.0,4.0,92,0.00,,,0.00,0.00,VWS V14.01,2013-06-16 07:20:00,
2013-06-16 00:25:00,53.2,50.9,30.06,WNW,302,1.0,4.0,92,0.00,,,0.00,0.00,VWS V14.01,2013-06-16 07:25:00,
2013-06-16 00:30:00,53.2,50.9,30.06,WNW,301,2.0,4.0,92,0.00,,,0.00,0.00,VWS V14.01,2013-06-16 07:30:00,
2013-06-16 00:35:00,53.2,50.9,30.06,WNW,289,2.0,5.0,92,0.00,,,0.00,0.00,VWS V14.01,2013-06-16 07:35:00,
2013-06-16 00:40:00,53.1,50.8,30.06,WNW,292,0.0,5.0,92,0.00,,,0.00,0.00,VWS V14.01,2013-06-16 07:40:00,
2013-06-16 00:45:00,53.1,50.8,30.07,West,278,3.0,5.0,92,0.00,,,0.00,0.00,VWS V14.01,2013-06-16 07:45:00,
2013-06-16 00:50:00,52.9,50.6,30.06,NW,321,2.0,5.0,92,0.00,,,0.00,0.00,VWS V14.01,2013-06-16 07:50:00,
2013-06-16 00:55:00,52.9,50.6,30.06,West,262,0.0,4.0,92,0.00,,,0.00,0.00,VWS V14.01,2013-06-16 07:55:00,
2013-06-16 01:00:00,52.8,50.5,30.06,West,262,2.0,5.0,92,0.00,,,0.00,0.00,VWS V14.01,2013-06-16 08:00:00,
2013-06-16 01:05:00,52.9,50.6,30.07,WNW,302,3.0,4.0,92,0.00,,,0.00,0.00,VWS V14.01,2013-06-16 08:05:00,
2013-06-16 01:10:00,52.8,50.5,30.06,WNW,300,1.0,4.0,92,0.00,,,0.00,0.00,VWS V14.01,2013-06-16 08:10:00,
2013-06-16 01:15:00,52.8,50.5,30.06,WNW,300,0.0,3.0,92,0.00,,,0.00,0.00,VWS V14.01,2013-06-16 08:15:00,
2013-06-16 01:20:00,52.9,50.6,30.06,WNW,302,2.0,3.0,92,0.00,,,0.00,0.00,VWS V14.01,2013-06-16 08:20:00,
2013-06-16 01:25:00,53.0,50.7,30.06,WNW,293,0.0,3.0,92,0.00,,,0.00,0.00,VWS V14.01,2013-06-16 08:25:00,
2013-06-16 01:30:00,53.0,50.7,30.06,NW,306,1.0,5.0,92,0.00,,,0.00,0.00,VWS V14.01,2013-06-16 08:30:00,
2013-06-16 01:35:00,53.0,50.7,30.06,WNW,284,2.0,5.0,92,0.00,,,0.00,0.00,VWS V14.01,2013-06-16 08:35:00,
2013-06-16 01:40:00,53.1,50.8,30.06,West,269,2.0,5.0,92,0.00,,,0.00,0.00,VWS V14.01,2013-06-16 08:40:00,
2013-06-16 01:45:00,53.1,50.8,30.06,West,270,2.0,6.0,92,0.00,,,0.00,0.00,VWS V14.01,2013-06-16 08:45:00,
2013-06-16 01:50:00,53.1,50.8,30.07,WNW,289,1.0,2.0,92,0.00,,,0.00,0.00,VWS V14.01,2013-06-16 08:50:00,
2013-06-16 01:55:00,53.1,50.8,30.06,WNW,289,2.0,2.0,92,0.00,,,0.00,0.00,VWS V14.01,2013-06-16 08:55:00,
2013-06-16 02:00:00,53.0,50.7,30.06,WNW,289,2.0,2.0,92,0.00,,,0.00,0.00,VWS V14.01,2013-06-16 09:00:00,
2013-06-16 02:05:00,53.0,50.7,30.06,WSW,247,3.0,5.0,92,0.00,,,0.00,0.00,VWS V14.01,2013-06-16 09:05:00,
2013-06-16 02:10:00,53.0,50.7,30.06,WSW,247,0.0,1.0,92,0.00,,,0.00,0.00,VWS V14.01,2013-06-16 09:10:00,
2013-06-16 02:15:00,52.9,50.6,30.06,WSW,247,0.0,3.0,92,0.00,,,0.00,0.00,VWS V14.01,2013-06-16 09:15:00,
2013-06-16 02:20:00,53.0,50.7,30.06,WSW,247,1.0,1.0,92,0.00,,,0.00,0.00,VWS V14.01,2013-06-16 09:20:00,
2013-06-16 02:25:00,53.0,50.7,30.06,WSW,247,0.0,4.0,92,0.00,,,0.00,0.00,VWS V14.01,2013-06-16 09:25:00,
2013-06-16 02:30:00,53.0,50.7,30.06,WSW,247,0.0,0.0,92,0.00,,,0.00,0.00,VWS V14.01,2013-06-16 09:30:00,
2013-06-16 02:35:00,52.9,50.6,30.06,WSW,247,1.0,2.0,92,0.00,,,0.00,0.00,VWS V14.01,2013-06-16 09:35:00,
2013-06-16 02:40:00,52.9,50.6,30.06,WSW,247,1.0,2.0,92,0.00,,,0.00,0.00,VWS V14.01,2013-06-16 09:40:00,
2013-06-16 02:45:00,52.9,50.6,30.06,WSW,247,3.0,3.0,92,0.00,,,0.00,0.00,VWS V14.01,2013-06-16 09:45:00,
2013-06-16 02:50:00,52.9,50.6,30.06,WSW,247,2.0,3.0,92,0.00,,,0.00,0.00,VWS V14.01,2013-06-16 09:50:00,
2013-06-16 02:55:00,52.9,50.6,30.06,West,267,3.0,4.0,92,0.00,,,0.00,0.00,VWS V14.01,2013-06-16 09:55:00,
2013-06-16 03:00:00,52.8,50.5,30.06,NW,326,2.0,4.0,92,0.00,,,0.00,0.00,VWS V14.01,2013-06-16 10:00:00,
2013-06-16 03:06:00,52.8,50.5,30.05,NW,306,0.0,0.0,92,0.00,,,0.00,0.00,VWS V14.01,2013-06-16 10:06:00,
2013-06-16 03:11:00,52.8,50.5,30.06,NW,306,2.0,2.0,92,0.00,,,0.00,0.00,VWS V14.01,2013-06-16 10:11:00,
2013-06-16 03:16:00,52.8,50.5,30.06,West,270,1.0,4.0,92,0.00,,,0.00,0.00,VWS V14.01,2013-06-16 10:16:00,
2013-06-16 03:21:00,52.8,50.5,30.05,West,277,1.0,1.0,92,0.00,,,0.00,0.00,VWS V14.01,2013-06-16 10:21:00,
2013-06-16 03:26:00,52.7,50.5,30.05,WSW,240,1.0,5.0,92,0.00,,,0.00,0.00,VWS V14.01,2013-06-16 10:26:00,
2013-06-16 03:31:00,52.7,50.5,30.06,West,271,0.0,3.0,92,0.00,,,0.00,0.00,VWS V14.01,2013-06-16 10:31:00,
2013-06-16 03:36:00,52.7,50.5,30.06,West,271,1.0,3.0,92,0.00,,,0.00,0.00,VWS V14.01,2013-06-16 10:36:00,
2013-06-16 03:41:00,52.7,50.5,30.06,West,270,0.0,2.0,92,0.00,,,0.00,0.00,VWS V14.01,2013-06-16 10:41:00,
2013-06-16 03:46:00,52.7,50.5,30.06,West,270,0.0,3.0,92,0.00,,,0.00,0.00,VWS V14.01,2013-06-16 10:46:00,
2013-06-16 03:51:00,52.7,50.5,30.06,West,270,0.0,0.0,92,0.00,,,0.00,0.00,VWS V14.01,2013-06-16 10:51:00,
2013-06-16 03:56:00,52.7,50.5,30.06,NNW,339,2.0,4.0,92,0.00,,,0.00,0.00,VWS V14.01,2013-06-16 10:56:00,
2013-06-16 04:01:00,52.6,50.3,30.06,WNW,286,0.0,2.0,92,0.00,,,0.00,0.00,VWS V14.01,2013-06-16 11:01:00,
2013-06-16 04:06:00,52.6,50.3,30.06,WNW,301,0.0,4.0,92,0.00,,,0.00,0.00,VWS V14.01,2013-06-16 11:06:00,
2013-06-16 04:11:00,52.5,50.2,30.06,West,277,1.0,2.0,92,0.00,,,0.00,0.00,VWS V14.01,2013-06-16 11:11:00,
2013-06-16 04:16:00,52.5,50.2,30.06,West,277,0.0,2.0,92,0.00,,,0.00,0.00,VWS V14.01,2013-06-16 11:16:00,
2013-06-16 04:21:00,52.5,50.2,30.06,WSW,245,3.0,3.0,92,0.00,,,0.00,0.00,VWS V14.01,2013-06-16 11:21:00,
2013-06-16 04:26:00,52.5,50.2,30.06,WSW,245,1.0,3.0,92,0.00,,,0.00,0.00,VWS V14.01,2013-06-16 11:26:00,
2013-06-16 04:31:00,52.4,50.4,30.06,WSW,245,0.0,3.0,93,0.00,,,0.00,0.00,VWS V14.01,2013-06-16 11:31:00,
2013-06-16 04:36:00,52.4,50.4,30.06,WSW,245,0.0,3.0,93,0.00,,,0.00,0.00,VWS V14.01,2013-06-16 11:36:00,
2013-06-16 04:41:00,52.4,50.2,30.06,WSW,248,1.0,1.0,92,0.00,,,0.00,0.00,VWS V14.01,2013-06-16 11:41:00,
2013-06-16 04:46:00,52.4,50.4,30.06,WSW,248,2.0,3.0,93,0.00,,,0.00,0.00,VWS V14.01,2013-06-16 11:46:00,
2013-06-16 04:51:00,52.4,50.2,30.06,WSW,248,2.0,2.0,92,0.00,,,0.00,0.00,VWS V14.01,2013-06-16 11:51:00,
2013-06-16 04:56:00,52.4,50.4,30.06,WSW,248,0.0,3.0,93,0.00,,,0.00,0.00,VWS V14.01,2013-06-16 11:56:00,
2013-06-16 05:01:00,52.4,50.4,30.06,WSW,248,1.0,1.0,93,0.00,,,0.00,0.00,VWS V14.01,2013-06-16 12:01:00,
2013-06-16 05:06:00,52.4,50.4,30.06,WSW,248,0.0,2.0,93,0.00,,,0.00,0.00,VWS V14.01,2013-06-16 12:06:00,
2013-06-16 05:11:00,52.5,50.5,30.07,WSW,248,0.0,1.0,93,0.00,,,0.00,0.00,VWS V14.01,2013-06-16 12:11:00,
2013-06-16 05:16:00,52.5,50.5,30.06,WSW,248,1.0,2.0,93,0.00,,,0.00,0.00,VWS V14.01,2013-06-16 12:16:00,
2013-06-16 05:21:00,52.5,50.5,30.07,WSW,248,0.0,1.0,93,0.00,,,0.00,0.00,VWS V14.01,2013-06-16 12:21:00,
2013-06-16 05:26:00,52.4,50.4,30.07,WSW,248,0.0,4.0,93,0.00,,,0.00,0.00,VWS V14.01,2013-06-16 12:26:00,
2013-06-16 05:31:00,52.4,50.4,30.07,West,259,2.0,2.0,93,0.00,,,0.00,0.00,VWS V14.01,2013-06-16 12:31:00,
2013-06-16 05:36:00,52.4,50.2,30.07,WSW,248,1.0,3.0,92,0.00,,,0.00,0.00,VWS V14.01,2013-06-16 12:36:00,
2013-06-16 05:41:00,52.4,50.2,30.07,WSW,248,0.0,0.0,92,0.00,,,0.00,0.00,VWS V14.01,2013-06-16 12:41:00,
2013-06-16 05:46:00,52.4,50.2,30.07,WSW,248,0.0,2.0,92,0.00,,,0.00,0.00,VWS V14.01,2013-06-16 12:46:00,
2013-06-16 05:51:00,52.4,50.2,30.07,WSW,248,0.0,0.0,92,0.00,,,0.00,5.00,VWS V14.01,2013-06-16 12:51:00,
2013-06-16 05:56:00,52.4,50.2,30.07,WSW,248,0.0,1.0,92,0.00,,,0.00,7.00,VWS V14.01,2013-06-16 12:56:00,
2013-06-16 06:01:00,52.3,50.0,30.07,WSW,248,0.0,0.0,92,0.00,,,0.00,11.00,VWS V14.01,2013-06-16 13:01:00,
2013-06-16 06:06:00,52.3,50.0,30.07,WSW,248,0.0,2.0,92,0.00,,,0.00,14.00,VWS V14.01,2013-06-16 13:06:00,
2013-06-16 06:11:00,52.2,50.0,30.07,WSW,248,0.0,0.0,92,0.00,,,0.00,16.00,VWS V14.01,2013-06-16 13:11:00,
2013-06-16 06:16:00,52.2,50.0,30.07,WSW,248,0.0,1.0,92,0.00,,,0.00,19.00,VWS V14.01,2013-06-16 13:16:00,
2013-06-16 06:21:00,52.3,50.0,30.08,WSW,248,0.0,1.0,92,0.00,,,0.00,26.00,VWS V14.01,2013-06-16 13:21:00,
2013-06-16 06:26:00,52.4,50.4,30.08,WSW,248,0.0,2.0,93,0.00,,,0.00,28.00,VWS V14.01,2013-06-16 13:26:00,
2013-06-16 06:31:00,52.4,50.4,30.08,WSW,248,1.0,3.0,93,0.00,,,0.00,30.00,VWS V14.01,2013-06-16 13:31:00,
2013-06-16 06:36:00,52.4,50.4,30.08,WSW,248,1.0,4.0,93,0.00,,,0.00,39.00,VWS V14.01,2013-06-16 13:36:00,
2013-06-16 06:41:00,52.4,50.4,30.08,WSW,248,1.0,1.0,93,0.00,,,0.00,60.00,VWS V14.01,2013-06-16 13:41:00,
2013-06-16 06:46:00,52.4,50.2,30.08,WSW,248,0.0,2.0,92,0.00,,,0.00,51.00,VWS V14.01,2013-06-16 13:46:00,
2013-06-16 06:51:00,52.4,50.4,30.08,WSW,248,0.0,0.0,93,0.00,,,0.00,58.00,VWS V14.01,2013-06-16 13:51:00,
2013-06-16 06:56:00,52.4,50.4,30.08,WSW,248,0.0,1.0,93,0.00,,,0.00,62.00,VWS V14.01,2013-06-16 13:56:00,
2013-06-16 07:01:00,52.5,50.5,30.09,WSW,248,0.0,0.0,93,0.00,,,0.00,90.00,VWS V14.01,2013-06-16 14:01:00,
2013-06-16 07:06:00,52.6,50.6,30.09,WSW,248,0.0,1.0,93,0.00,,,0.00,90.00,VWS V14.01,2013-06-16 14:06:00,
2013-06-16 07:11:00,52.7,50.7,30.09,WSW,248,0.0,1.0,93,0.00,,,0.00,81.00,VWS V14.01,2013-06-16 14:11:00,
2013-06-16 07:16:00,52.8,50.8,30.09,WSW,248,0.0,2.0,93,0.00,,,0.00,84.00,VWS V14.01,2013-06-16 14:16:00,
2013-06-16 07:21:00,52.9,50.9,30.10,WSW,248,0.0,4.0,93,0.00,,,0.00,88.00,VWS V14.01,2013-06-16 14:21:00,
2013-06-16 07:26:00,52.9,50.6,30.10,WNW,301,0.0,5.0,92,0.00,,,0.00,97.00,VWS V14.01,2013-06-16 14:26:00,
2013-06-16 07:31:00,53.0,50.7,30.10,North,6,0.0,1.0,92,0.00,,,0.00,111.00,VWS V14.01,2013-06-16 14:31:00,
2013-06-16 07:36:00,53.1,50.8,30.10,West,270,1.0,3.0,92,0.00,,,0.00,123.00,VWS V14.01,2013-06-16 14:36:00,
2013-06-16 07:41:00,53.2,50.9,30.10,North,2,3.0,4.0,92,0.00,,,0.00,134.00,VWS V14.01,2013-06-16 14:41:00,
2013-06-16 07:46:00,53.4,51.1,30.10,West,262,6.0,6.0,92,0.00,,,0.00,123.00,VWS V14.01,2013-06-16 14:46:00,
2013-06-16 07:51:00,53.5,51.2,30.10,WSW,256,2.0,4.0,92,0.00,,,0.00,169.00,VWS V14.01,2013-06-16 14:51:00,
2013-06-16 07:56:00,53.7,51.4,30.11,WSW,257,2.0,4.0,92,0.00,,,0.00,162.00,VWS V14.01,2013-06-16 14:56:00,
2013-06-16 08:01:00,53.9,51.3,30.11,WSW,247,2.0,3.0,91,0.00,,,0.00,160.00,VWS V14.01,2013-06-16 15:01:00,
2013-06-16 08:06:00,54.0,51.4,30.11,WNW,282,0.0,4.0,91,0.00,,,0.00,204.00,VWS V14.01,2013-06-16 15:06:00,
2013-06-16 08:11:00,54.3,51.4,30.11,NNW,336,0.0,3.0,90,0.00,,,0.00,192.00,VWS V14.01,2013-06-16 15:11:00,
2013-06-16 08:16:00,54.4,51.5,30.11,West,264,1.0,4.0,90,0.00,,,0.00,200.00,VWS V14.01,2013-06-16 15:16:00,
2013-06-16 08:21:00,54.5,51.3,30.11,West,264,2.0,4.0,89,0.00,,,0.00,204.00,VWS V14.01,2013-06-16 15:21:00,
2013-06-16 08:26:00,54.7,51.5,30.11,WNW,285,2.0,6.0,89,0.00,,,0.00,214.00,VWS V14.01,2013-06-16 15:26:00,
2013-06-16 08:31:00,54.7,51.5,30.12,West,279,3.0,4.0,89,0.00,,,0.00,204.00,VWS V14.01,2013-06-16 15:31:00,
2013-06-16 08:36:00,54.8,51.6,30.12,West,263,3.0,6.0,89,0.00,,,0.00,218.00,VWS V14.01,2013-06-16 15:36:00,
2013-06-16 08:41:00,54.8,51.6,30.12,WNW,302,4.0,6.0,89,0.00,,,0.00,221.00,VWS V14.01,2013-06-16 15:41:00,
2013-06-16 08:47:00,54.9,51.7,30.12,West,273,4.0,7.0,89,0.00,,,0.00,234.00,VWS V14.01,2013-06-16 15:47:00,
2013-06-16 08:52:00,54.9,51.4,30.12,West,276,0.0,5.0,88,0.00,,,0.00,257.00,VWS V14.01,2013-06-16 15:52:00,
2013-06-16 08:57:00,55.1,51.6,30.12,West,261,2.0,5.0,88,0.00,,,0.00,306.00,VWS V14.01,2013-06-16 15:57:00,
2013-06-16 09:02:00,55.2,51.7,30.12,WNW,301,3.0,5.0,88,0.00,,,0.00,276.00,VWS V14.01,2013-06-16 16:02:00,
2013-06-16 09:07:00,55.3,51.8,30.12,WNW,285,3.0,7.0,88,0.00,,,0.00,288.00,VWS V14.01,2013-06-16 16:07:00,
2013-06-16 09:12:00,55.4,51.9,30.12,WNW,283,5.0,8.0,88,0.00,,,0.00,294.00,VWS V14.01,2013-06-16 16:12:00,
2013-06-16 09:17:00,55.5,51.7,30.12,NNW,337,3.0,8.0,87,0.00,,,0.00,346.00,VWS V14.01,2013-06-16 16:17:00,
2013-06-16 09:22:00,55.5,51.7,30.12,WNW,295,2.0,5.0,87,0.00,,,0.00,396.00,VWS V14.01,2013-06-16 16:22:00,
2013-06-16 09:27:00,55.8,52.0,30.12,WNW,301,7.0,7.0,87,0.00,,,0.00,376.00,VWS V14.01,2013-06-16 16:27:00,
2013-06-16 09:32:00,55.9,52.4,30.12,NW,304,5.0,6.0,88,0.00,,,0.00,392.00,VWS V14.01,2013-06-16 16:32:00,
2013-06-16 09:37:00,56.0,52.2,30.12,WNW,294,3.0,7.0,87,0.00,,,0.00,383.00,VWS V14.01,2013-06-16 16:37:00,
2013-06-16 09:42:00,55.8,51.7,30.12,WSW,239,5.0,8.0,86,0.00,,,0.00,357.00,VWS V14.01,2013-06-16 16:42:00,
2013-06-16 09:47:00,55.9,52.1,30.12,WNW,301,4.0,8.0,87,0.00,,,0.00,387.00,VWS V14.01,2013-06-16 16:47:00,
2013-06-16 09:52:00,56.1,52.3,30.12,West,281,6.0,7.0,87,0.00,,,0.00,378.00,VWS V14.01,2013-06-16 16:52:00,
2013-06-16 09:57:00,56.3,52.2,30.12,NW,313,2.0,7.0,86,0.00,,,0.00,406.00,VWS V14.01,2013-06-16 16:57:00,
2013-06-16 10:02:00,56.2,52.1,30.12,NW,324,4.0,7.0,86,0.00,,,0.00,550.00,VWS V14.01,2013-06-16 17:02:00,
2013-06-16 10:07:00,56.3,52.2,30.12,West,263,4.0,7.0,86,0.00,,,0.00,420.00,VWS V14.01,2013-06-16 17:07:00,
2013-06-16 10:12:00,56.4,52.3,30.12,West,261,5.0,5.0,86,0.00,,,0.00,401.00,VWS V14.01,2013-06-16 17:12:00,
2013-06-16 10:17:00,56.6,52.5,30.12,NW,304,5.0,8.0,86,0.00,,,0.00,462.00,VWS V14.01,2013-06-16 17:17:00,
2013-06-16 10:22:00,56.5,52.0,30.12,WNW,302,2.0,10.0,85,0.00,,,0.00,466.00,VWS V14.01,2013-06-16 17:22:00,
2013-06-16 10:27:00,56.4,52.3,30.12,West,275,2.0,10.0,86,0.00,,,0.00,587.00,VWS V14.01,2013-06-16 17:27:00,
2013-06-16 10:32:00,56.8,52.7,30.12,NW,312,5.0,5.0,86,0.00,,,0.00,504.00,VWS V14.01,2013-06-16 17:32:00,
2013-06-16 10:37:00,56.9,52.4,30.13,West,277,8.0,8.0,85,0.00,,,0.00,619.00,VWS V14.01,2013-06-16 17:37:00,
2013-06-16 10:42:00,56.7,52.2,30.13,WNW,294,6.0,8.0,85,0.00,,,0.00,580.00,VWS V14.01,2013-06-16 17:42:00,
2013-06-16 10:47:00,56.8,52.3,30.13,NW,306,6.0,8.0,85,0.00,,,0.00,773.00,VWS V14.01,2013-06-16 17:47:00,
2013-06-16 10:52:00,56.8,52.3,30.13,NW,313,6.0,8.0,85,0.00,,,0.00,570.00,VWS V14.01,2013-06-16 17:52:00,
2013-06-16 10:57:00,56.8,52.7,30.13,North,353,1.0,8.0,86,0.00,,,0.00,554.00,VWS V14.01,2013-06-16 17:57:00,
2013-06-16 11:02:00,56.9,52.4,30.13,NW,313,1.0,7.0,85,0.00,,,0.00,526.00,VWS V14.01,2013-06-16 18:02:00,
2013-06-16 11:07:00,57.3,52.8,30.13,WNW,283,3.0,7.0,85,0.00,,,0.00,587.00,VWS V14.01,2013-06-16 18:07:00,
2013-06-16 11:12:00,57.3,52.5,30.13,West,280,4.0,8.0,84,0.00,,,0.00,531.00,VWS V14.01,2013-06-16 18:12:00,
2013-06-16 11:17:00,57.2,52.7,30.13,WSW,257,3.0,8.0,85,0.00,,,0.00,429.00,VWS V14.01,2013-06-16 18:17:00,
2013-06-16 11:22:00,57.4,52.6,30.13,WNW,299,6.0,7.0,84,0.00,,,0.00,1042.00,VWS V14.01,2013-06-16 18:22:00,
2013-06-16 11:27:00,57.6,52.8,30.13,West,273,4.0,7.0,84,0.00,,,0.00,1042.00,VWS V14.01,2013-06-16 18:27:00,
2013-06-16 11:32:00,57.5,52.7,30.13,NW,305,8.0,11.0,84,0.00,,,0.00,585.00,VWS V14.01,2013-06-16 18:32:00,
2013-06-16 11:37:00,57.1,52.3,30.13,WSW,250,8.0,11.0,84,0.00,,,0.00,747.00,VWS V14.01,2013-06-16 18:37:00,
2013-06-16 11:42:00,57.3,52.8,30.13,WNW,300,5.0,5.0,85,0.00,,,0.00,698.00,VWS V14.01,2013-06-16 18:42:00,
2013-06-16 11:47:00,57.8,53.0,30.14,West,268,3.0,8.0,84,0.00,,,0.00,1014.00,VWS V14.01,2013-06-16 18:47:00,
2013-06-16 11:52:00,58.0,53.2,30.14,WNW,289,4.0,7.0,84,0.00,,,0.00,1016.00,VWS V14.01,2013-06-16 18:52:00,
2013-06-16 11:57:00,58.3,53.5,30.13,WNW,284,4.0,8.0,84,0.00,,,0.00,1021.00,VWS V14.01,2013-06-16 18:57:00,
2013-06-16 12:02:00,58.3,53.2,30.13,West,260,9.0,9.0,83,0.00,,,0.00,1065.00,VWS V14.01,2013-06-16 19:02:00,
2013-06-16 12:07:00,58.3,53.2,30.13,WSW,247,4.0,9.0,83,0.00,,,0.00,728.00,VWS V14.01,2013-06-16 19:07:00,
2013-06-16 12:12:00,58.4,53.3,30.13,NW,322,5.0,8.0,83,0.00,,,0.00,1032.00,VWS V14.01,2013-06-16 19:12:00,
2013-06-16 12:17:00,58.4,53.3,30.14,NW,311,4.0,8.0,83,0.00,,,0.00,977.00,VWS V14.01,2013-06-16 19:17:00,
2013-06-16 12:22:00,58.6,53.8,30.14,WSW,239,3.0,8.0,84,0.00,,,0.00,1044.00,VWS V14.01,2013-06-16 19:22:00,
2013-06-16 12:27:00,59.0,53.5,30.14,West,262,9.0,9.0,82,0.00,,,0.00,928.00,VWS V14.01,2013-06-16 19:27:00,
2013-06-16 12:32:00,58.9,53.4,30.14,West,272,6.0,10.0,82,0.00,,,0.00,972.00,VWS V14.01,2013-06-16 19:32:00,
2013-06-16 12:37:00,58.8,53.7,30.14,SW,220,4.0,10.0,83,0.00,,,0.00,976.00,VWS V14.01,2013-06-16 19:37:00,
2013-06-16 12:42:00,58.7,53.6,30.14,West,261,7.0,10.0,83,0.00,,,0.00,965.00,VWS V14.01,2013-06-16 19:42:00,
2013-06-16 12:47:00,58.5,53.0,30.14,WSW,243,8.0,11.0,82,0.00,,,0.00,962.00,VWS V14.01,2013-06-16 19:47:00,
2013-06-16 12:52:00,58.4,53.3,30.14,SW,233,7.0,11.0,83,0.00,,,0.00,962.00,VWS V14.01,2013-06-16 19:52:00,
2013-06-16 12:58:00,58.3,53.2,30.13,NNW,332,10.0,11.0,83,0.00,,,0.00,963.00,VWS V14.01,2013-06-16 19:58:00,
2013-06-16 13:03:00,59.1,54.3,30.13,West,272,6.0,6.0,84,0.00,,,0.00,965.00,VWS V14.01,2013-06-16 20:03:00,
2013-06-16 13:08:00,59.2,53.7,30.13,WSW,252,6.0,10.0,82,0.00,,,0.00,977.00,VWS V14.01,2013-06-16 20:08:00,
2013-06-16 13:13:00,59.0,53.5,30.13,West,275,7.0,10.0,82,0.00,,,0.00,979.00,VWS V14.01,2013-06-16 20:13:00,
2013-06-16 13:18:00,59.1,53.6,30.13,West,272,5.0,11.0,82,0.00,,,0.00,979.00,VWS V14.01,2013-06-16 20:18:00,
2013-06-16 13:23:00,59.1,53.6,30.13,WSW,255,9.0,11.0,82,0.00,,,0.00,928.00,VWS V14.01,2013-06-16 20:23:00,
2013-06-16 13:28:00,59.2,53.7,30.13,West,266,3.0,11.0,82,0.00,,,0.00,983.00,VWS V14.01,2013-06-16 20:28:00,
2013-06-16 13:33:00,59.1,53.3,30.13,WNW,288,4.0,9.0,81,0.00,,,0.00,962.00,VWS V14.01,2013-06-16 20:33:00,
2013-06-16 13:38:00,59.2,54.0,30.13,NW,309,0.0,9.0,83,0.00,,,0.00,963.00,VWS V14.01,2013-06-16 20:38:00,
2013-06-16 13:43:00,60.0,54.5,30.12,West,264,5.0,6.0,82,0.00,,,0.00,954.00,VWS V14.01,2013-06-16 20:43:00,
2013-06-16 13:48:00,60.4,54.5,30.13,WSW,240,5.0,8.0,81,0.00,,,0.00,954.00,VWS V14.01,2013-06-16 20:48:00,
2013-06-16 13:53:00,60.3,54.1,30.13,West,278,2.0,8.0,80,0.00,,,0.00,953.00,VWS V14.01,2013-06-16 20:53:00,
2013-06-16 13:58:00,60.2,54.0,30.13,WSW,250,9.0,9.0,80,0.00,,,0.00,947.00,VWS V14.01,2013-06-16 20:58:00,
2013-06-16 14:03:00,60.1,54.3,30.13,West,272,5.0,8.0,81,0.00,,,0.00,942.00,VWS V14.01,2013-06-16 21:03:00,
2013-06-16 14:08:00,60.0,53.8,30.12,WSW,258,5.0,8.0,80,0.00,,,0.00,940.00,VWS V14.01,2013-06-16 21:08:00,
2013-06-16 14:13:00,60.0,54.2,30.12,SW,214,5.0,11.0,81,0.00,,,0.00,930.00,VWS V14.01,2013-06-16 21:13:00,
2013-06-16 14:18:00,60.0,53.8,30.12,NW,307,3.0,11.0,80,0.00,,,0.00,928.00,VWS V14.01,2013-06-16 21:18:00,
2013-06-16 14:23:00,60.1,53.9,30.12,NW,309,6.0,10.0,80,0.00,,,0.00,921.00,VWS V14.01,2013-06-16 21:23:00,
2013-06-16 14:28:00,60.0,53.8,30.12,West,264,6.0,10.0,80,0.00,,,0.00,909.00,VWS V14.01,2013-06-16 21:28:00,
2013-06-16 14:33:00,60.0,53.8,30.12,WNW,289,4.0,9.0,80,0.00,,,0.00,905.00,VWS V14.01,2013-06-16 21:33:00,
2013-06-16 14:38:00,60.2,54.0,30.12,WSW,257,6.0,12.0,80,0.00,,,0.00,904.00,VWS V14.01,2013-06-16 21:38:00,
2013-06-16 14:43:00,60.7,54.5,30.12,West,268,6.0,9.0,80,0.00,,,0.00,896.00,VWS V14.01,2013-06-16 21:43:00,
2013-06-16 14:48:00,60.9,54.3,30.12,WSW,249,6.0,9.0,79,0.00,,,0.00,888.00,VWS V14.01,2013-06-16 21:48:00,
2013-06-16 14:53:00,61.0,54.5,30.12,West,281,4.0,9.0,79,0.00,,,0.00,881.00,VWS V14.01,2013-06-16 21:53:00,
2013-06-16 14:58:00,61.3,54.4,30.12,West,271,5.0,10.0,78,0.00,,,0.00,875.00,VWS V14.01,2013-06-16 21:58:00,
2013-06-16 15:03:00,61.3,54.7,30.11,WNW,283,6.0,6.0,79,0.00,,,0.00,863.00,VWS V14.01,2013-06-16 22:03:00,
2013-06-16 15:08:00,61.2,54.3,30.11,WNW,282,6.0,11.0,78,0.00,,,0.00,858.00,VWS V14.01,2013-06-16 22:08:00,
2013-06-16 15:13:00,61.2,54.6,30.11,NW,325,7.0,10.0,79,0.00,,,0.00,846.00,VWS V14.01,2013-06-16 22:13:00,
2013-06-16 15:18:00,61.3,54.7,30.11,West,273,8.0,10.0,79,0.00,,,0.00,844.00,VWS V14.01,2013-06-16 22:18:00,
2013-06-16 15:23:00,61.1,54.5,30.11,West,260,6.0,10.0,79,0.00,,,0.00,831.00,VWS V14.01,2013-06-16 22:23:00,
2013-06-16 15:28:00,61.1,54.5,30.11,WNW,297,3.0,10.0,79,0.00,,,0.00,821.00,VWS V14.01,2013-06-16 22:28:00,
2013-06-16 15:33:00,61.5,55.3,30.11,West,274,6.0,7.0,80,0.00,,,0.00,807.00,VWS V14.01,2013-06-16 22:33:00,
2013-06-16 15:38:00,61.6,54.7,30.11,West,273,3.0,10.0,78,0.00,,,0.00,798.00,VWS V14.01,2013-06-16 22:38:00,
2013-06-16 15:43:00,61.1,54.9,30.11,WSW,255,7.0,11.0,80,0.00,,,0.00,791.00,VWS V14.01,2013-06-16 22:43:00,
2013-06-16 15:48:00,60.7,54.5,30.11,South,175,8.0,14.0,80,0.00,,,0.00,777.00,VWS V14.01,2013-06-16 22:48:00,
2013-06-16 15:53:00,60.3,54.1,30.11,WSW,237,8.0,12.0,80,0.00,,,0.00,765.00,VWS V14.01,2013-06-16 22:53:00,
2013-06-16 15:58:00,60.2,54.7,30.11,WNW,286,11.0,12.0,82,0.00,,,0.00,752.00,VWS V14.01,2013-06-16 22:58:00,
2013-06-16 16:03:00,60.0,54.5,30.11,West,280,6.0,13.0,82,0.00,,,0.00,742.00,VWS V14.01,2013-06-16 23:03:00,
2013-06-16 16:08:00,60.0,54.5,30.11,WSW,256,3.0,14.0,82,0.00,,,0.00,726.00,VWS V14.01,2013-06-16 23:08:00,
2013-06-16 16:13:00,60.2,54.4,30.11,WSW,256,4.0,12.0,81,0.00,,,0.00,714.00,VWS V14.01,2013-06-16 23:13:00,
2013-06-16 16:18:00,60.0,54.5,30.11,WNW,297,4.0,14.0,82,0.00,,,0.00,701.00,VWS V14.01,2013-06-16 23:18:00,
2013-06-16 16:23:00,60.3,54.8,30.11,West,268,3.0,11.0,82,0.00,,,0.00,691.00,VWS V14.01,2013-06-16 23:23:00,
2013-06-16 16:28:00,60.8,54.9,30.10,West,281,9.0,11.0,81,0.00,,,0.00,679.00,VWS V14.01,2013-06-16 23:28:00,
2013-06-16 16:33:00,60.8,54.6,30.10,West,276,7.0,10.0,80,0.00,,,0.00,664.00,VWS V14.01,2013-06-16 23:33:00,
2013-06-16 16:38:00,60.9,55.0,30.11,NW,312,5.0,13.0,81,0.00,,,0.00,649.00,VWS V14.01,2013-06-16 23:38:00,
2013-06-16 16:43:00,60.9,55.0,30.11,West,270,8.0,12.0,81,0.00,,,0.00,635.00,VWS V14.01,2013-06-16 23:43:00,
2013-06-16 16:48:00,61.0,54.8,30.11,West,262,3.0,12.0,80,0.00,,,0.00,619.00,VWS V14.01,2013-06-16 23:48:00,
2013-06-16 16:53:00,61.2,55.0,30.11,NW,318,4.0,7.0,80,0.00,,,0.00,606.00,VWS V14.01,2013-06-16 23:53:00,
2013-06-16 16:58:00,61.7,55.1,30.11,WNW,287,4.0,9.0,79,0.00,,,0.00,589.00,VWS V14.01,2013-06-16 23:58:00,
2013-06-16 17:03:00,62.0,55.4,30.11,WNW,283,3.0,7.0,79,0.00,,,0.00,575.00,VWS V14.01,2013-06-17 00:03:00,
2013-06-16 17:08:00,62.8,55.8,30.11,WNW,288,7.0,8.0,78,0.00,,,0.00,563.00,VWS V14.01,2013-06-17 00:08:00,
2013-06-16 17:13:00,62.9,55.2,30.11,WSW,249,2.0,6.0,76,0.00,,,0.00,550.00,VWS V14.01,2013-06-17 00:13:00,
2013-06-16 17:18:00,63.0,55.3,30.11,WNW,299,1.0,8.0,76,0.00,,,0.00,533.00,VWS V14.01,2013-06-17 00:18:00,
2013-06-16 17:23:00,63.2,55.9,30.10,SSW,195,0.0,10.0,77,0.00,,,0.00,519.00,VWS V14.01,2013-06-17 00:23:00,
2013-06-16 17:29:00,63.8,55.7,30.10,West,259,1.0,10.0,75,0.00,,,0.00,501.00,VWS V14.01,2013-06-17 00:29:00,
2013-06-16 17:34:00,64.0,55.2,30.10,West,269,2.0,9.0,73,0.00,,,0.00,485.00,VWS V14.01,2013-06-17 00:34:00,
2013-06-16 17:39:00,64.0,55.9,30.10,WSW,247,4.0,9.0,75,0.00,,,0.00,473.00,VWS V14.01,2013-06-17 00:39:00,
2013-06-16 17:44:00,64.5,56.0,30.10,South,177,5.0,5.0,74,0.00,,,0.00,455.00,VWS V14.01,2013-06-17 00:44:00,
2013-06-16 17:49:00,64.5,55.3,30.10,SSE,148,3.0,5.0,72,0.00,,,0.00,441.00,VWS V14.01,2013-06-17 00:49:00,
2013-06-16 17:54:00,64.6,55.8,30.10,SSE,167,2.0,4.0,73,0.00,,,0.00,425.00,VWS V14.01,2013-06-17 00:54:00,
2013-06-16 17:59:00,65.1,55.9,30.10,West,266,3.0,4.0,72,0.00,,,0.00,408.00,VWS V14.01,2013-06-17 00:59:00,
2013-06-16 18:04:00,65.2,56.0,30.10,South,177,1.0,5.0,72,0.00,,,0.00,392.00,VWS V14.01,2013-06-17 01:04:00,
2013-06-16 18:09:00,65.2,55.6,30.10,NW,305,0.0,5.0,71,0.00,,,0.00,378.00,VWS V14.01,2013-06-17 01:09:00,
2013-06-16 18:14:00,64.9,55.3,30.10,WSW,249,7.0,7.0,71,0.00,,,0.00,360.00,VWS V14.01,2013-06-17 01:14:00,
2013-06-16 18:19:00,63.7,54.9,30.10,WNW,287,0.0,8.0,73,0.00,,,0.00,345.00,VWS V14.01,2013-06-17 01:19:00,
2013-06-16 18:24:00,63.3,54.9,30.10,ENE,74,0.0,4.0,74,0.00,,,0.00,329.00,VWS V14.01,2013-06-17 01:24:00,
2013-06-16 18:29:00,63.2,54.8,30.10,NNW,331,4.0,8.0,74,0.00,,,0.00,315.00,VWS V14.01,2013-06-17 01:29:00,
2013-06-16 18:34:00,62.8,54.8,30.10,WNW,283,5.0,10.0,75,0.00,,,0.00,295.00,VWS V14.01,2013-06-17 01:34:00,
2013-06-16 18:39:00,62.1,54.5,30.10,WSW,243,7.0,11.0,76,0.00,,,0.00,279.00,VWS V14.01,2013-06-17 01:39:00,
2013-06-16 18:44:00,61.6,54.3,30.10,WNW,302,8.0,13.0,77,0.00,,,0.00,265.00,VWS V14.01,2013-06-17 01:44:00,
2013-06-16 18:49:00,60.8,53.9,30.10,West,270,8.0,13.0,78,0.00,,,0.00,243.00,VWS V14.01,2013-06-17 01:49:00,
2013-06-16 18:54:00,60.4,54.2,30.10,West,270,7.0,10.0,80,0.00,,,0.00,225.00,VWS V14.01,2013-06-17 01:54:00,
2013-06-16 18:59:00,59.9,53.7,30.11,WSW,253,9.0,10.0,80,0.00,,,0.00,211.00,VWS V14.01,2013-06-17 01:59:00,
2013-06-16 19:04:00,59.7,53.9,30.11,SSW,208,4.0,7.0,81,0.00,,,0.00,193.00,VWS V14.01,2013-06-17 02:04:00,
2013-06-16 19:09:00,59.8,54.0,30.12,West,269,0.0,7.0,81,0.00,,,0.00,183.00,VWS V14.01,2013-06-17 02:09:00,
2013-06-16 19:14:00,59.8,54.0,30.12,WSW,253,2.0,4.0,81,0.00,,,0.00,165.00,VWS V14.01,2013-06-17 02:14:00,
2013-06-16 19:19:00,60.0,54.2,30.12,South,181,2.0,4.0,81,0.00,,,0.00,148.00,VWS V14.01,2013-06-17 02:19:00,
2013-06-16 19:24:00,60.0,53.8,30.11,SSW,197,1.0,4.0,80,0.00,,,0.00,128.00,VWS V14.01,2013-06-17 02:24:00,
2013-06-16 19:29:00,59.7,53.5,30.11,SW,235,3.0,7.0,80,0.00,,,0.00,111.00,VWS V14.01,2013-06-17 02:29:00,
2013-06-16 19:34:00,59.7,53.9,30.11,WSW,248,0.0,4.0,81,0.00,,,0.00,93.00,VWS V14.01,2013-06-17 02:34:00,
2013-06-16 19:39:00,59.8,53.6,30.11,West,264,2.0,4.0,80,0.00,,,0.00,77.00,VWS V14.01,2013-06-17 02:39:00,
2013-06-16 19:44:00,59.6,53.4,30.11,SE,131,3.0,5.0,80,0.00,,,0.00,25.00,VWS V14.01,2013-06-17 02:44:00,
2013-06-16 19:49:00,59.2,53.4,30.11,SSE,160,0.0,5.0,81,0.00,,,0.00,25.00,VWS V14.01,2013-06-17 02:49:00,
2013-06-16 19:54:00,59.0,53.2,30.11,SE,125,1.0,3.0,81,0.00,,,0.00,21.00,VWS V14.01,2013-06-17 02:54:00,
2013-06-16 19:59:00,58.9,53.1,30.11,SSE,153,0.0,5.0,81,0.00,,,0.00,19.00,VWS V14.01,2013-06-17 02:59:00,
2013-06-16 20:04:00,58.7,52.9,30.11,South,178,3.0,5.0,81,0.00,,,0.00,16.00,VWS V14.01,2013-06-17 03:04:00,
2013-06-16 20:09:00,58.5,53.0,30.11,WSW,243,2.0,5.0,82,0.00,,,0.00,14.00,VWS V14.01,2013-06-17 03:09:00,
2013-06-16 20:14:00,58.4,52.9,30.11,SW,230,2.0,3.0,82,0.00,,,0.00,12.00,VWS V14.01,2013-06-17 03:14:00,
2013-06-16 20:19:00,58.2,52.7,30.11,SW,221,0.0,4.0,82,0.00,,,0.00,9.00,VWS V14.01,2013-06-17 03:19:00,
2013-06-16 20:24:00,58.0,52.5,30.11,SE,138,0.0,3.0,82,0.00,,,0.00,7.00,VWS V14.01,2013-06-17 03:24:00,
2013-06-16 20:29:00,57.9,52.5,30.12,SSE,152,2.0,4.0,82,0.00,,,0.00,5.00,VWS V14.01,2013-06-17 03:29:00,
2013-06-16 20:34:00,57.7,52.6,30.12,West,274,2.0,5.0,83,0.00,,,0.00,0.00,VWS V14.01,2013-06-17 03:34:00,
2013-06-16 20:39:00,57.5,52.4,30.12,SW,228,2.0,6.0,83,0.00,,,0.00,0.00,VWS V14.01,2013-06-17 03:39:00,
2013-06-16 20:44:00,57.3,52.2,30.12,WSW,256,1.0,5.0,83,0.00,,,0.00,0.00,VWS V14.01,2013-06-17 03:44:00,
2013-06-16 20:49:00,57.1,52.3,30.12,SW,236,3.0,5.0,84,0.00,,,0.00,0.00,VWS V14.01,2013-06-17 03:49:00,
2013-06-16 20:54:00,56.8,52.3,30.12,SSW,193,2.0,4.0,85,0.00,,,0.00,0.00,VWS V14.01,2013-06-17 03:54:00,
2013-06-16 20:59:00,56.7,52.2,30.12,NE,53,0.0,5.0,85,0.00,,,0.00,0.00,VWS V14.01,2013-06-17 03:59:00,
2013-06-16 21:01:00,56.6,52.2,30.12,WNW,287,5.0,6.0,85,0.00,,,0.00,0.00,VWS V14.01,2013-06-17 04:01:00,
2013-06-16 21:02:00,56.6,52.5,30.12,WNW,287,1.0,6.0,86,0.00,,,0.00,0.00,VWS V14.01,2013-06-17 04:02:00,
2013-06-16 21:03:00,56.5,52.4,30.12,WNW,285,0.0,6.0,86,0.00,,,0.00,0.00,VWS V14.01,2013-06-17 04:03:00,
2013-06-16 21:05:00,56.5,52.4,30.12,SSE,166,1.0,6.0,86,0.00,,,0.00,0.00,VWS V14.01,2013-06-17 04:05:00,
2013-06-16 21:10:00,56.5,52.4,30.12,WNW,288,2.0,4.0,86,0.00,,,0.00,0.00,VWS V14.01,2013-06-17 04:10:00,
2013-06-16 21:15:00,56.4,52.3,30.12,WNW,291,11.0,11.0,86,0.00,,,0.00,0.00,VWS V14.01,2013-06-17 04:15:00,
2013-06-16 21:20:00,56.4,52.3,30.13,WSW,253,0.0,0.0,86,0.00,,,0.00,0.00,VWS V14.01,2013-06-17 04:20:00,
2013-06-16 21:25:00,56.4,52.6,30.12,WNW,293,5.0,7.0,87,0.00,,,0.00,0.00,VWS V14.01,2013-06-17 04:25:00,
2013-06-16 21:30:00,56.4,52.6,30.12,WSW,242,6.0,6.0,87,0.00,,,0.00,0.00,VWS V14.01,2013-06-17 04:30:00,
2013-06-16 21:35:00,56.3,52.5,30.13,West,272,5.0,9.0,87,0.00,,,0.00,0.00,VWS V14.01,2013-06-17 04:35:00,
2013-06-16 21:40:00,56.3,52.5,30.13,WSW,254,6.0,6.0,87,0.00,,,0.00,0.00,VWS V14.01,2013-06-17 04:40:00,
2013-06-16 21:45:00,56.2,52.4,30.13,West,281,1.0,6.0,87,0.00,,,0.00,0.00,VWS V14.01,2013-06-17 04:45:00,
2013-06-16 21:50:00,56.1,52.3,30.13,WNW,293,0.0,0.0,87,0.00,,,0.00,0.00,VWS V14.01,2013-06-17 04:50:00,
2013-06-16 21:55:00,56.1,52.3,30.13,West,276,1.0,4.0,87,0.00,,,0.00,0.00,VWS V14.01,2013-06-17 04:55:00,
2013-06-16 22:00:00,56.0,52.2,30.13,WSW,247,4.0,5.0,87,0.00,,,0.00,0.00,VWS V14.01,2013-06-17 05:00:00,
2013-06-16 22:05:00,55.9,52.1,30.14,WSW,251,1.0,5.0,87,0.00,,,0.00,0.00,VWS V14.01,2013-06-17 05:05:00,
2013-06-16 22:10:00,55.9,52.1,30.14,WSW,249,2.0,2.0,87,0.00,,,0.00,0.00,VWS V14.01,2013-06-17 05:10:00,
2013-06-16 22:15:00,55.8,52.3,30.14,SSE,149,3.0,5.0,88,0.00,,,0.00,0.00,VWS V14.01,2013-06-17 05:15:00,
2013-06-16 22:20:00,55.7,52.2,30.14,SW,231,1.0,2.0,88,0.00,,,0.00,0.00,VWS V14.01,2013-06-17 05:20:00,
2013-06-16 22:25:00,55.6,52.1,30.14,WSW,239,1.0,3.0,88,0.00,,,0.00,0.00,VWS V14.01,2013-06-17 05:25:00,
2013-06-16 22:30:00,55.7,52.2,30.14,West,275,1.0,1.0,88,0.00,,,0.00,0.00,VWS V14.01,2013-06-17 05:30:00,
2013-06-16 22:35:00,55.6,52.1,30.14,West,266,3.0,5.0,88,0.00,,,0.00,0.00,VWS V14.01,2013-06-17 05:35:00,
2013-06-16 22:40:00,55.6,52.1,30.14,West,267,0.0,0.0,88,0.00,,,0.00,0.00,VWS V14.01,2013-06-17 05:40:00,
2013-06-16 22:45:00,55.6,52.1,30.14,West,265,0.0,2.0,88,0.00,,,0.00,0.00,VWS V14.01,2013-06-17 05:45:00,
2013-06-16 22:50:00,55.5,52.0,30.14,SE,139,0.0,0.0,88,0.00,,,0.00,0.00,VWS V14.01,2013-06-17 05:50:00,
2013-06-16 22:55:00,55.5,52.0,30.14,SE,139,0.0,3.0,88,0.00,,,0.00,0.00,VWS V14.01,2013-06-17 05:55:00,
2013-06-16 23:00:00,55.5,52.0,30.14,WNW,287,2.0,3.0,88,0.00,,,0.00,0.00,VWS V14.01,2013-06-17 06:00:00,
2013-06-16 23:05:00,55.6,52.1,30.14,West,269,1.0,6.0,88,0.00,,,0.00,0.00,VWS V14.01,2013-06-17 06:05:00,
2013-06-16 23:10:00,55.6,51.8,30.14,WSW,249,0.0,0.0,87,0.00,,,0.00,0.00,VWS V14.01,2013-06-17 06:10:00,
2013-06-16 23:15:00,55.5,51.7,30.14,WSW,249,0.0,2.0,87,0.00,,,0.00,0.00,VWS V14.01,2013-06-17 06:15:00,
2013-06-16 23:20:00,55.4,51.6,30.13,SW,226,0.0,1.0,87,0.00,,,0.00,0.00,VWS V14.01,2013-06-17 06:20:00,
2013-06-16 23:25:00,55.3,51.8,30.13,SW,227,1.0,2.0,88,0.00,,,0.00,0.00,VWS V14.01,2013-06-17 06:25:00,
2013-06-16 23:30:00,55.3,51.8,30.13,SW,227,1.0,1.0,88,0.00,,,0.00,0.00,VWS V14.01,2013-06-17 06:30:00,
2013-06-16 23:35:00,55.3,51.5,30.13,SW,227,0.0,1.0,87,0.00,,,0.00,0.00,VWS V14.01,2013-06-17 06:35:00,
2013-06-16 23:40:00,55.3,51.8,30.13,West,278,0.0,2.0,88,0.00,,,0.00,0.00,VWS V14.01,2013-06-17 06:40:00,
2013-06-16 23:45:00,55.4,51.9,30.13,West,273,2.0,5.0,88,0.00,,,0.00,0.00,VWS V14.01,2013-06-17 06:45:00,
2013-06-16 23:50:00,55.4,51.6,30.13,WSW,256,3.0,6.0,87,0.00,,,0.00,0.00,VWS V14.01,2013-06-17 06:50:00,
2013-06-16 23:55:00,55.4,51.6,30.13,WNW,291,0.0,8.0,87,0.00,,,0.00,0.00,VWS V14.01,2013-06-17 06:55:00,